When you browse on this site, cookies collect data to enhance your experience and personalize the content and advertising you see.
Visit our Privacy Policy to learn more. By continuing to use the site, you agree to this use of cookies and data.
  • In Hungary
  • List of Countries
  • For 7 days
  • Water Temperature
  • Weather Map
  • News
  • Weather Widgets
  • user-avatar
    Login

    Hourly Weather Aleksandrovo-Markovo

    Today, 19 October, Saturday

    Time Temperature Precipitation Wind Pressure Humidity
    00:00 +15°C° 0 mm 2 mps 762 mmHg 80%
    01:00 +15°C° 0 mm 2 mps 762 mmHg 80%
    02:00 +14°C° 0 mm 2 mps 762 mmHg 81%
    03:00 +13°C° 0 mm 1 mps 762 mmHg 80%
    04:00 +13°C° 0 mm 2 mps 762 mmHg 78%
    05:00 +13°C° 0 mm 2 mps 763 mmHg 77%
    06:00 +13°C° 0 mm 2 mps 763 mmHg 76%
    07:00 +14°C° 0 mm 2 mps 763 mmHg 71%
    08:00 +15°C° 0 mm 2 mps 763 mmHg 66%
    09:00 +16°C° 0 mm 2 mps 764 mmHg 58%
    10:00 +17°C° 0 mm 2 mps 764 mmHg 54%
    11:00 +18°C° 0 mm 3 mps 764 mmHg 49%
    12:00 +20°C° 0 mm 3 mps 764 mmHg 45%
    13:00 +20°C° 0 mm 2 mps 763 mmHg 43%
    14:00 +21°C° 0 mm 2 mps 763 mmHg 41%
    15:00 +23°C° 0 mm 2 mps 763 mmHg 39%
    16:00 +20°C° 0 mm 2 mps 763 mmHg 43%
    17:00 +19°C° 0 mm 2 mps 763 mmHg 46%
    18:00 +18°C° 0 mm 2 mps 763 mmHg 50%
    19:00 +18°C° 0 mm 2 mps 764 mmHg 52%
    20:00 +17°C° 0 mm 2 mps 764 mmHg 54%
    21:00 +17°C° 0 mm 2 mps 764 mmHg 56%
    22:00 +16°C° 0 mm 3 mps 764 mmHg 58%
    23:00 +16°C° 0 mm 3 mps 764 mmHg 60%

    Tomorrow, 20 October, Sunday

    Time Temperature Precipitation Wind Pressure Humidity
    00:00 +14°C° 0 mm 3 mps 765 mmHg 62%
    01:00 +14°C° 0 mm 3 mps 765 mmHg 64%
    02:00 +13°C° 0 mm 3 mps 765 mmHg 66%
    03:00 +13°C° 0 mm 3 mps 765 mmHg 68%
    04:00 +13°C° 0 mm 3 mps 765 mmHg 69%
    05:00 +12°C° 0 mm 3 mps 765 mmHg 71%
    06:00 +12°C° 0 mm 3 mps 765 mmHg 72%
    07:00 +13°C° 0 mm 4 mps 766 mmHg 68%
    08:00 +14°C° 0 mm 4 mps 766 mmHg 65%
    09:00 +15°C° 0 mm 4 mps 766 mmHg 61%
    10:00 +17°C° 0 mm 4 mps 766 mmHg 56%
    11:00 +19°C° 0 mm 4 mps 766 mmHg 51%
    12:00 +21°C° 0 mm 4 mps 766 mmHg 45%
    13:00 +21°C° 0 mm 4 mps 766 mmHg 44%
    14:00 +22°C° 0 mm 4 mps 766 mmHg 42%
    15:00 +22°C° 0 mm 4 mps 765 mmHg 40%
    16:00 +21°C° 0 mm 4 mps 765 mmHg 44%
    17:00 +20°C° 0 mm 4 mps 765 mmHg 48%
    18:00 +19°C° 0 mm 4 mps 766 mmHg 53%
    19:00 +18°C° 0 mm 4 mps 766 mmHg 55%
    20:00 +18°C° 0 mm 4 mps 766 mmHg 57%
    21:00 +17°C° 0 mm 4 mps 766 mmHg 59%
    22:00 +17°C° 0 mm 4 mps 766 mmHg 61%
    23:00 +15°C° 0 mm 4 mps 766 mmHg 63%

    Day after tomorrow, 21 October, Monday

    Time Temperature Precipitation Wind Pressure Humidity
    00:00 +15°C° 0 mm 4 mps 766 mmHg 65%
    01:00 +14°C° 0 mm 4 mps 766 mmHg 67%
    02:00 +14°C° 0 mm 4 mps 766 mmHg 68%
    03:00 +13°C° 0 mm 4 mps 766 mmHg 70%
    04:00 +13°C° 0 mm 4 mps 766 mmHg 71%
    05:00 +13°C° 0 mm 4 mps 767 mmHg 72%
    06:00 +12°C° 0 mm 4 mps 767 mmHg 74%
    07:00 +13°C° 0 mm 5 mps 767 mmHg 71%
    08:00 +14°C° 0 mm 5 mps 767 mmHg 69%
    09:00 +15°C° 0 mm 5 mps 767 mmHg 67%
    10:00 +16°C° 0 mm 5 mps 767 mmHg 61%
    11:00 +19°C° 0 mm 5 mps 767 mmHg 54%
    12:00 +20°C° 0 mm 5 mps 767 mmHg 48%
    13:00 +21°C° 0 mm 5 mps 767 mmHg 46%
    14:00 +21°C° 0 mm 5 mps 766 mmHg 44%
    15:00 +22°C° 0 mm 4 mps 766 mmHg 42%
    16:00 +21°C° 0 mm 4 mps 766 mmHg 46%
    17:00 +19°C° 0 mm 4 mps 766 mmHg 50%
    18:00 +18°C° 0 mm 4 mps 766 mmHg 54%
    19:00 +18°C° 0 mm 4 mps 766 mmHg 56%
    20:00 +17°C° 0 mm 4 mps 766 mmHg 59%
    21:00 +15°C° 0 mm 4 mps 766 mmHg 62%
    22:00 +15°C° 0 mm 4 mps 766 mmHg 64%
    23:00 +14°C° 0 mm 3 mps 766 mmHg 65%

    22 October, Tuesday

    Time Temperature Precipitation Wind Pressure Humidity
    00:00 +14°C° 0 mm 3 mps 766 mmHg 67%
    01:00 +13°C° 0 mm 3 mps 766 mmHg 69%
    02:00 +13°C° 0 mm 3 mps 766 mmHg 71%
    03:00 +13°C° 0 mm 3 mps 766 mmHg 72%
    04:00 +12°C° 0 mm 3 mps 766 mmHg 73%
    05:00 +12°C° 0 mm 3 mps 766 mmHg 74%
    06:00 +12°C° 0 mm 3 mps 766 mmHg 75%
    07:00 +12°C° 0 mm 3 mps 767 mmHg 71%
    08:00 +13°C° 0 mm 3 mps 767 mmHg 67%
    09:00 +14°C° 0 mm 3 mps 767 mmHg 63%
    10:00 +17°C° 0 mm 3 mps 767 mmHg 57%
    11:00 +18°C° 0 mm 3 mps 767 mmHg 51%
    12:00 +19°C° 0 mm 3 mps 767 mmHg 46%
    13:00 +20°C° 0 mm 3 mps 766 mmHg 43%
    14:00 +21°C° 0 mm 2 mps 766 mmHg 41%
    15:00 +21°C° 0 mm 2 mps 766 mmHg 39%
    16:00 +20°C° 0 mm 2 mps 766 mmHg 41%
    17:00 +19°C° 0 mm 2 mps 766 mmHg 44%
    18:00 +18°C° 0 mm 2 mps 766 mmHg 47%
    19:00 +18°C° 0 mm 2 mps 766 mmHg 48%
    20:00 +17°C° 0 mm 2 mps 766 mmHg 50%
    21:00 +17°C° 0 mm 2 mps 766 mmHg 51%
    22:00 +17°C° 0 mm 2 mps 766 mmHg 52%
    23:00 +16°C° 0 mm 1 mps 766 mmHg 54%

    23 October, Wednesday

    Time Temperature Precipitation Wind Pressure Humidity
    00:00 +16°C° 0 mm 1 mps 766 mmHg 55%
    01:00 +15°C° 0 mm 1 mps 766 mmHg 56%
    02:00 +15°C° 0 mm 1 mps 766 mmHg 57%
    03:00 +15°C° 0 mm 1 mps 766 mmHg 58%
    04:00 +15°C° 0 mm 1 mps 766 mmHg 58%
    05:00 +15°C° 0 mm 1 mps 767 mmHg 59%
    06:00 +14°C° 0 mm 1 mps 767 mmHg 60%
    07:00 +15°C° 0 mm 1 mps 767 mmHg 57%
    08:00 +16°C° 0 mm 1 mps 767 mmHg 55%
    09:00 +18°C° 0 mm 1 mps 767 mmHg 53%
    10:00 +19°C° 0 mm 1 mps 767 mmHg 49%
    11:00 +20°C° 0 mm 1 mps 767 mmHg 46%
    12:00 +22°C° 0 mm 1 mps 767 mmHg 42%
    13:00 +22°C° 0 mm 1 mps 766 mmHg 41%
    14:00 +23°C° 0 mm 1 mps 766 mmHg 40%
    15:00 +23°C° 0 mm 1 mps 766 mmHg 38%
    16:00 +22°C° 0 mm 1 mps 766 mmHg 41%
    17:00 +21°C° 0 mm 1 mps 766 mmHg 44%
    18:00 +20°C° 0 mm 1 mps 766 mmHg 47%
    19:00 +20°C° 0 mm 1 mps 766 mmHg 49%
    20:00 +19°C° 0 mm 1 mps 766 mmHg 50%
    21:00 +19°C° 0 mm 1 mps 766 mmHg 51%
    22:00 +18°C° 0 mm 1 mps 766 mmHg 53%
    23:00 +18°C° 0 mm 1 mps 766 mmHg 55%

    24 October, Thursday

    Time Temperature Precipitation Wind Pressure Humidity
    00:00 +16°C° 0 mm 1 mps 766 mmHg 56%
    01:00 +16°C° 0 mm 1 mps 766 mmHg 58%
    02:00 +16°C° 0 mm 1 mps 766 mmHg 59%
    03:00 +15°C° 0 mm 1 mps 765 mmHg 60%
    04:00 +15°C° 0 mm 1 mps 765 mmHg 61%
    05:00 +15°C° 0 mm 1 mps 766 mmHg 62%
    06:00 +14°C° 0 mm 2 mps 766 mmHg 63%
    07:00 +15°C° 0 mm 2 mps 766 mmHg 61%
    08:00 +16°C° 0 mm 2 mps 766 mmHg 58%
    09:00 +17°C° 0 mm 2 mps 766 mmHg 56%
    10:00 +18°C° 0 mm 2 mps 766 mmHg 52%
    11:00 +19°C° 0 mm 2 mps 766 mmHg 48%
    12:00 +21°C° 0 mm 2 mps 766 mmHg 44%
    13:00 +21°C° 0 mm 2 mps 765 mmHg 42%
    14:00 +21°C° 0 mm 2 mps 765 mmHg 40%
    15:00 +23°C° 0 mm 2 mps 765 mmHg 39%
    16:00 +21°C° 0 mm 2 mps 764 mmHg 41%
    17:00 +20°C° 0 mm 2 mps 764 mmHg 44%
    18:00 +19°C° 0 mm 2 mps 764 mmHg 46%
    19:00 +18°C° 0 mm 2 mps 765 mmHg 48%
    20:00 +18°C° 0 mm 2 mps 765 mmHg 49%
    21:00 +17°C° 0 mm 2 mps 765 mmHg 51%
    22:00 +17°C° 0 mm 2 mps 765 mmHg 52%
    23:00 +16°C° 0 mm 2 mps 765 mmHg 54%
    Show more